Погода в Ветютневе

Россия / Волгоградская область     49°46′08″N   43°31′58″E
темп.,
°C
ветер,
м/с
пор.,
м/с
влажн.,
%
обл.,
%
осадки,
мм/ч
давл.,
гПа
погр.,
м
23 апреля, пт
пт2300:00+13ю1160100 0.0 102211
03:00+12юв2262100 0.0 102241
06:00+10зюз598499 0.4 1022392
09:00+12зюз4477100 1.2 1022328
12:00+10зюз5586100 1.6 1022378
15:00+12зюз2269100 1.9 1021645
18:00+12ююз12656 0.0 1019639
21:00+9юв33805 0.0 101950
24 апреля, сб
сб2400:00+8ююв3486100 0.0 101777
03:00+8юз3382100 0.0 101641
06:00+9ююз41079100 0.2 1015288
09:00+12ююз7116499 0.3 1014952
12:00+14ююз81152100 0.2 10131868
15:00+10з7984100 1.6 1013707
18:00+10з510635 0.9 10141368
21:00+7з511722 1.1 1016506
25 апреля, вс
вс2500:00+6зюз5117810 0.0 1017313
03:00+4зюз51185100 0.0 1018544
06:00+3з510790 0.0 1020636
09:00+7з710495 0.0 10211270
12:00+10з67365 0.0 10211934
15:00+11з563337 0.0 10202170
18:00+10з3336100 0.0 10201619
21:00+9юз2240100 0.0 102017
26 апреля, пн
пн2600:00+8ююв2242100 0.0 101926
03:00+7юв3447100 0.0 101979
06:00+6юв3556100 0.0 1018133
09:00+9ююв3349100 0.0 1017752
12:00+11ююв3345100 0.0 10151555
15:00+12ююв4347100 0.0 10141569
18:00+11ю4358100 0.0 1013770
21:00+8ююз577794 0.0 1013275
27 апреля, вт
вт2700:00+6юз498810 0.0 1013260
03:00+6зсз5990100 0.0 1013594
06:00+6сз5771100 0.0 1014922
09:00+8з56588 0.0 10151222
12:00+12з673866 0.0 10142127
15:00+13з6833100 0.0 10142420
18:00+11зсз5645100 0.0 10141416
21:00+8зсз4563100 0.1 1014375